Skagway, AK

8:39 AM AKDT on October 22, 2017 (GMT -0800)
Skagway

Weather History for PAGY - January, 2013

Change the Weather History Date:

Monday, January 21, 2013

  Actual Average Record
Temperature  
Mean Temperature 30 °F -  
Max Temperature 35 °F 26 °F 46 °F (2004)
Min Temperature 28 °F 19 °F -2 °F (1982)
Degree Days  
Heating Degree Days 34    
Moisture  
Dew Point 30 °F    
Average Humidity 93    
Maximum Humidity 100    
Minimum Humidity 86    
Precipitation  
Precipitation 0.17 in - - ()
Sea Level Pressure  
Sea Level Pressure 30.08 in    
Wind  
Wind Speed 1 mph (NNE)    
Max Wind Speed 5 mph    
Max Gust Speed -    
Visibility 4 miles    
Events Snow    
Averages and records for this station are not official NWS values.
T = Trace of Precipitation, MM = Missing Value Source: NWS Daily Summary

Daily Weather History Graph

Daily Weather History Graph

Search for Another Location

Airport or City:

Trip Planner

Search our weather history database for the weather conditions in past years. The results will help you decide how hot, cold, wet, or windy it might be!

Date:

Astronomy

Jan. 21, 2013 Rise Set
Actual Time 8:33 AM AKST 3:52 PM AKST
Civil Twilight 7:44 AM AKST 4:41 PM AKST
Nautical Twilight 6:52 AM AKST 5:33 PM AKST
Astronomical Twilight 6:04 AM AKST 6:22 PM AKST
Moon 11:29 AM AKST (1/21) 4:14 AM AKST (1/21)
Length of Visible Light 8h 57m
Length of Day
7h 18m
Waxing Gibbous, 76% of the Moon is Illuminated
Jan 21
Waxing Gibbous
Jan 26
Full
Feb 3
Last Quarter
Feb 9
New
Feb 17
First Quarter

Hourly Weather History & Observations

Time (AKST) Temp. Windchill Dew Point Humidity Pressure Visibility Wind Dir Wind Speed Gust Speed Precip Events Conditions
12:53 AM 28.9 °F 25.2 °F 26.1 °F 89% 30.13 in 4.0 mi NE 3.5 mph - 0.00 in Snow Light Snow
1:37 AM 28.4 °F 24.6 °F 26.6 °F 93% 30.12 in 2.5 mi NNE 3.5 mph - 0.00 in Snow Light Snow
1:50 AM 30.2 °F 26.7 °F 26.6 °F 86% 30.11 in 3.0 mi NNE 3.5 mph - 0.01 in Snow Light Snow
1:53 AM 30.0 °F 25.2 °F 27.0 °F 88% 30.12 in 3.0 mi NE 4.6 mph - 0.01 in Snow Light Snow
3:53 AM 30.0 °F 26.5 °F 28.0 °F 92% 30.12 in 4.0 mi NNE 3.5 mph - 0.01 in Snow Light Snow
4:18 AM 30.2 °F - 28.4 °F 93% 30.12 in 3.0 mi Calm Calm - 0.01 in Snow Light Snow
4:49 AM 30.2 °F - 30.2 °F 100% 30.10 in 2.5 mi Calm Calm - 0.02 in Snow Light Snow
4:53 AM 30.9 °F - 30.0 °F 96% 30.11 in 2.0 mi Calm Calm - 0.02 in Snow Light Snow
5:18 AM 30.2 °F - 28.4 °F 93% 30.11 in 2.0 mi Calm Calm - 0.01 in Snow Light Snow
5:37 AM 30.2 °F - 30.2 °F 100% 30.11 in 2.0 mi Calm Calm - 0.02 in Snow Light Snow
5:53 AM 30.9 °F - 28.9 °F 92% 30.11 in 2.0 mi Calm Calm - 0.02 in Snow Light Snow
6:00 AM 30.2 °F - 28.4 °F 93% 30.11 in 2.0 mi Calm Calm - 0.01 in Snow Light Snow
6:07 AM 30.2 °F - 28.4 °F 93% 30.10 in 2.0 mi Calm Calm - 0.01 in Snow Light Snow
6:46 AM 30.2 °F - 28.4 °F 93% 30.10 in 1.8 mi Calm Calm - 0.02 in Snow Light Snow
6:53 AM 30.9 °F - 28.9 °F 92% 30.10 in 1.5 mi Calm Calm - 0.03 in Snow Light Snow
7:10 AM 30.2 °F - 28.4 °F 93% 30.10 in 2.0 mi Calm Calm - 0.01 in Snow Light Snow
7:20 AM 30.2 °F - 28.4 °F 93% 30.09 in 1.5 mi Calm Calm - 0.01 in Snow Light Snow
7:39 AM 30.2 °F - 28.4 °F 93% 30.09 in 2.0 mi Calm Calm - 0.02 in Snow Light Snow
7:53 AM 30.9 °F - 28.9 °F 92% 30.09 in 2.5 mi Calm Calm - 0.03 in Snow Light Snow
8:05 AM 30.2 °F - 30.2 °F 100% 30.10 in 3.0 mi Calm Calm - 0.00 in Snow Light Snow
8:19 AM 32.0 °F - 30.2 °F 93% 30.10 in 2.5 mi Calm Calm - 0.00 in Snow Light Snow
8:29 AM 32.0 °F - 30.2 °F 93% 30.10 in 3.0 mi Calm Calm - 0.01 in Snow Light Snow
8:51 AM 32.0 °F - 30.2 °F 93% 30.10 in 4.0 mi Calm Calm - 0.01 in   Overcast
8:52 AM 32.0 °F - 30.9 °F 96% 30.10 in 4.0 mi Calm Calm - 0.01 in   Overcast
9:31 AM 32.0 °F - 30.2 °F 93% 30.11 in 2.5 mi Calm Calm - N/A   Overcast
9:50 AM 32.0 °F - 30.2 °F 93% 30.11 in 3.0 mi Calm Calm - N/A   Overcast
9:53 AM 32.0 °F - 30.0 °F 92% 30.11 in 2.5 mi Calm Calm - N/A   Overcast
10:02 AM 32.0 °F - 30.2 °F 93% 30.10 in 3.0 mi Calm Calm - 0.00 in Snow Light Snow
10:14 AM 32.0 °F - 30.2 °F 93% 30.11 in 3.0 mi Calm Calm - 0.00 in   Overcast
10:24 AM 32.0 °F - 30.2 °F 93% 30.11 in 3.0 mi Calm Calm - 0.00 in Snow Light Snow
10:38 AM 32.0 °F - 30.2 °F 93% 30.11 in 2.5 mi Calm Calm - 0.00 in Snow Light Snow
10:45 AM 32.0 °F - 30.2 °F 93% 30.11 in 2.0 mi Calm Calm - 0.00 in Snow Light Snow
10:50 AM 32.0 °F - 30.2 °F 93% 30.10 in 1.8 mi Calm Calm - 0.01 in Snow Light Snow
10:53 AM 32.0 °F - 30.9 °F 96% 30.10 in 1.8 mi Calm Calm - 0.01 in Snow Light Snow
11:11 AM 32.0 °F - 32.0 °F 100% 30.10 in 1.0 mi Calm Calm - 0.00 in Snow Light Snow
11:22 AM 32.0 °F - 30.2 °F 93% 30.10 in 1.2 mi Calm Calm - 0.01 in Snow Light Snow
11:53 AM 33.1 °F - 30.9 °F 92% 30.10 in 1.2 mi Calm Calm - 0.02 in Snow Light Snow
12:15 PM 33.8 °F - 32.0 °F 93% 30.09 in 1.8 mi Calm Calm - 0.00 in Snow Light Snow
12:30 PM 33.8 °F - 30.2 °F 87% 30.09 in 1.5 mi Calm Calm - 0.01 in Snow Light Snow
12:38 PM 33.8 °F - 30.2 °F 87% 30.09 in 1.0 mi Calm Calm - 0.01 in Snow Light Snow
12:53 PM 33.1 °F - 30.9 °F 92% 30.09 in 2.0 mi Calm Calm - 0.01 in Snow Light Snow
1:01 PM 33.8 °F - 30.2 °F 87% 30.09 in 3.0 mi Calm Calm - 0.00 in Snow Light Snow
1:53 PM 33.1 °F - 30.9 °F 92% 30.08 in 8.0 mi Calm Calm - 0.00 in   Overcast
2:53 PM 33.1 °F - 32.0 °F 96% 30.06 in 5.0 mi Calm Calm - N/A   Overcast
3:08 PM 33.8 °F - 30.2 °F 87% 30.05 in 4.0 mi Calm Calm - N/A   Overcast
3:53 PM 33.1 °F - 30.9 °F 92% 30.04 in 6.0 mi Calm Calm - N/A   Overcast
4:53 PM 33.1 °F 30.0 °F 30.0 °F 89% 30.02 in 8.0 mi NNE 3.5 mph - N/A   Overcast
5:53 PM 33.1 °F - 32.0 °F 96% 30.01 in 10.0 mi Calm Calm - N/A   Overcast
6:53 PM 33.1 °F - 30.9 °F 92% 29.99 in 10.0 mi Calm Calm - N/A   Overcast
7:22 PM 33.8 °F - 32.0 °F 93% 29.98 in 10.0 mi Calm Calm - N/A   Overcast
7:53 PM 33.1 °F 28.7 °F 30.9 °F 92% 29.96 in 10.0 mi NE 4.6 mph - N/A   Overcast
8:53 PM 33.1 °F - 30.9 °F 92% 29.96 in 10.0 mi Calm Calm - N/A   Overcast
9:53 PM 33.1 °F - 30.9 °F 92% 29.94 in 10.0 mi Calm Calm - N/A   Mostly Cloudy
10:53 PM 33.1 °F - 30.9 °F 92% 29.94 in 10.0 mi Calm Calm - N/A   Scattered Clouds
11:53 PM 35.1 °F - 32.0 °F 89% 29.92 in 10.0 mi Calm Calm - N/A   Clear